AirNav   Everest Fuels
 
 1074 users online  

Y89 Kalkaska City Airport
Kalkaska, Michigan, USA

GOING TO KALKASKA?


FAA INFORMATION EFFECTIVE 30 DECEMBER 2021

Location

FAA Identifier: Y89
Lat/Long: 44-43-30.6600N 085-12-11.2500W
44-43.511000N 085-12.187500W
44.7251833,-85.2031250
(estimated)
Elevation: 1030 ft. / 313.9 m (surveyed)
Variation: 05W (1985)
From city: 1 mile SW of KALKASKA, MI
Time zone: UTC -5 (UTC -4 during Daylight Saving Time)
Zip code: 49646

Airport Operations

Airport use: Open to the public
Activation date: 09/1960
Control tower: no
ARTCC: MINNEAPOLIS CENTER
FSS: LANSING FLIGHT SERVICE STATION
NOTAMs facility: LAN (NOTAM-D service available)
Attendance: UNATNDD
Wind indicator: lighted
Segmented circle: yes
Lights: ACTVT PAPI RWY 10 & 28; MIRL RWY 10/28 - CTAF.

Airport Communications

CTAF: 122.9
WX AWOS-3 at ACB (16 nm N): 119.275 (231-533-8941)
WX ASOS at TVC (16 nm W): 119.175 (231-486-2920)

Nearby radio navigation aids

VOR radial/distance  VOR name  Freq  Var
TVCr079/15.2TRAVERSE CITY VOR/DME114.6002W
CGGr283/(20.4)GRAYLING VOR109.8006W
GLRr237/27.3GAYLORD VOR/DME109.2006W

 
NDB name  Hdg/Dist  Freq  Var  ID
GWENN098/9.636505WTV - ...-
GRAYLING271/16.035906WGYG --. -.-- --.

Airport Services

Parking: tiedowns

Runway Information

Runway 10/28

Dimensions: 3500 x 75 ft. / 1067 x 23 m
Surface: asphalt, in good condition
Runway edge lights: medium intensity
Runway edge markings: FADED.
RUNWAY 10  RUNWAY 28
Latitude: 44-43.570833N44-43.451267N
Longitude: 085-12.582667W085-11.792260W
Traffic pattern: leftleft
Markings: basic, in poor conditionbasic, in poor condition
Visual slope indicator: 2-light PAPI on left (3.00 degrees glide path)2-light PAPI on left (4.00 degrees glide path)
Obstructions: 12 ft. tree, 245 ft. from runway, 137 ft. left of centerline, 3:1 slope to clear79 ft. tree, 1502 ft. from runway, 197 ft. left of centerline, 16:1 slope to clear

Airport Ownership and Management from official FAA records

Ownership: Publicly-owned
Owner: VILLAGE OF KALKASKA
200 HYDE ST
KALKASKA, MI 49646-8253
Phone 231-258-9191
Manager: SCOTT YOST, VILLAGE MGR
200 HYDE ST
KALKASKA, MI 49646-8253
Phone 231-258-9191
AFT HRS FLD CONDS CTC CNTRL DISPATCH 231-258-3350.

Airport Operational Statistics

Aircraft based on the field: 5
Single engine airplanes: 5
    
Aircraft operations: avg 51/week *
50% transient general aviation
50% local general aviation
* for 12-month period ending 31 December 2019

Additional Remarks

ADMIN BLDG & PHONE 300 FT WEST OF ACFT PKG AREA, IN TRANSIT AUTHORTY OFFICE. ACCESS PRESS 5, THEN 3-2 SIMULTANEOUS, THEN 1.
DEER & BIRDS ON & INVOF ARPT.
FOR CD CTC MINNEAPOLIS ARTCC AT 651-463-5588.

Instrument Procedures

There are no published instrument procedures at Y89.

Some nearby airports with instrument procedures:

KACB - Antrim County Airport (16 nm N)
KTVC - Cherry Capital Airport (16 nm W)
KGOV - Grayling Army Airfield (20 nm E)
KGLR - Gaylord Regional Airport (27 nm NE)
KCAD - Wexford County Airport (29 nm S)
 
Loc | Ops | Rwys | IFR | FBO | Links
Com | Nav | Svcs | Stats | Notes
Area around Y89 (Kalkaska City Airport)
 
Road maps at: MapQuest Bing Google
 
Aerial photo
WARNING: Photo may not be current or correct
Aerial photo of Y89 (Kalkaska City Airport)
Photo taken 01-Oct-2006

Do you have a better or more recent aerial photo of Kalkaska City Airport that you would like to share? If so, please send us your photo.

 
Sectional chart

 
Airport distance calculator
Flying to Kalkaska City Airport? Find the distance to fly.

From to Y89

Sunrise and sunset
Times for 16-Jan-2022
 Local
(UTC-5)
 Zulu
(UTC)
Morning civil twilight07:4312:43
Sunrise08:1513:15
Sunset17:2622:26
Evening civil twilight17:5922:59

Current date and time
Zulu (UTC)  16-Jan-2022 19:53:40
Local (UTC-5)  16-Jan-2022 14:53:40
 
METAR
KACB 
15nm N 
161935Z AUTO 18006KT 10SM CLR M05/M13 A2984 RMK AO2 T10471127
KTVC 
16nm W 
161853Z 18011G17KT 10SM FEW028 SCT120 BKN150 M03/M10 A2981 RMK AO2 SLP106 T10331100 $
KGOV 
20nm E 
161858Z AUTO 18006KT 10SM FEW200 M09/M12 A2983 RMK AO2 SLP145
KGLR 
28nm NE 
161853Z AUTO 17013KT 10SM CLR M08/M14 A2980 RMK AO2 SLP121 T10831139 PWINO FZRANO
KCAD 
29nm S 
161935Z AUTO 15004KT 10SM CLR M06/M13 A2978 RMK AO2 T10611126
TAF
KTVC 
16nm W 
161739Z 1618/1718 19010G18KT P6SM BKN200 FM170000 18007KT P6SM VCSH OVC070 FM170200 18005KT 4SM BR VCSH OVC070 FM170600 VRB03KT 5SM BR OVC030 FM171100 34008KT P6SM OVC018 FM171400 34012G20KT P6SM OVC018
NOTAMs
Click for the latest NOTAMs
NOTAMs are issued by the DoD/FAA and will open in a separate window not controlled by AirNav.

 

 
 

Would you like to see your business listed on this page?

 If your business provides an interesting product or service to pilots, flight crews, aircraft, or users of the Kalkaska City Airport, you should consider listing it here.  To start the listing process, click on the button below
 
Add a business
 

Other Pages about Kalkaska City Airport

Page from the Michigan Airport Directory (PDF)
 
Update a link
 
Copyright © AirNav, LLC. All rights reserved. Privacy Policy  Contact